�������l�o���
Date,Time,MP-1(��Sv/h),MP-2(��Sv/h),MP-3(��Sv/h),MP-4(��Sv/h),MP-5(��Sv/h),MP-6(��Sv/h),MP-7(��Sv/h),����,����(m/s),���J
2022/03/30,00:00,0.156,0.143,0.224,0.217,0.221,0.123,0.079,��쐼,6.6,��
2022/03/30,00:10,0.156,0.142,0.226,0.218,0.222,0.124,0.078,��쐼,6.6,��
2022/03/30,00:20,0.155,0.143,0.225,0.219,0.221,0.123,0.079,��쐼,5.2,��
2022/03/30,00:30,0.156,0.142,0.225,0.218,0.221,0.123,0.078,��쐼,5.1,��
2022/03/30,00:40,0.156,0.143,0.224,0.219,0.222,0.124,0.078,��쐼,5.2,��
2022/03/30,00:50,0.156,0.143,0.225,0.217,0.221,0.124,0.078,��쐼,4.9,��
2022/03/30,01:00,0.157,0.142,0.224,0.216,0.222,0.123,0.078,��쐼,5.6,��
2022/03/30,01:10,0.156,0.142,0.226,0.217,0.221,0.124,0.078,��쐼,5.9,��
2022/03/30,01:20,0.156,0.143,0.225,0.217,0.221,0.124,0.078,��,5.7,��
2022/03/30,01:30,0.156,0.143,0.225,0.217,0.223,0.124,0.078,��쐼,6.2,��
2022/03/30,01:40,0.156,0.143,0.225,0.217,0.221,0.123,0.079,��,7.2,��
2022/03/30,01:50,0.155,0.142,0.226,0.218,0.221,0.124,0.078,��,7.4,��
2022/03/30,02:00,0.156,0.142,0.226,0.218,0.221,0.123,0.079,��,6.4,��
2022/03/30,02:10,0.157,0.143,0.225,0.218,0.221,0.122,0.079,��쐼,6.4,��
2022/03/30,02:20,0.156,0.142,0.226,0.219,0.222,0.124,0.078,��,5.4,��
2022/03/30,02:30,0.156,0.142,0.225,0.218,0.221,0.123,0.078,��,4.6,��
2022/03/30,02:40,0.157,0.142,0.224,0.218,0.222,0.124,0.079,��,4.9,��
2022/03/30,02:50,0.155,0.143,0.226,0.219,0.222,0.123,0.078,��,4.4,��
2022/03/30,03:00,0.156,0.144,0.226,0.217,0.222,0.125,0.078,��,4.7,��
2022/03/30,03:10,0.156,0.143,0.224,0.218,0.222,0.124,0.078,��쐼,4.2,��
2022/03/30,03:20,0.156,0.142,0.225,0.219,0.220,0.124,0.078,��쐼,3.2,��
2022/03/30,03:30,0.156,0.144,0.225,0.218,0.221,0.124,0.078,��쐼,3.6,��
2022/03/30,03:40,0.157,0.143,0.226,0.218,0.221,0.124,0.078,��쐼,4.1,��
2022/03/30,03:50,0.156,0.142,0.225,0.219,0.221,0.123,0.078,��쐼,4.4,��
2022/03/30,04:00,0.156,0.142,0.226,0.218,0.222,0.123,0.079,�쐼,3.3,��
2022/03/30,04:10,0.156,0.143,0.226,0.217,0.220,0.124,0.079,��쐼,3.3,��
2022/03/30,04:20,0.157,0.142,0.225,0.218,0.220,0.124,0.078,�쐼,3.8,��
2022/03/30,04:30,0.156,0.142,0.226,0.218,0.221,0.124,0.079,�쐼,3.6,��
2022/03/30,04:40,0.155,0.142,0.225,0.218,0.221,0.123,0.078,�쐼,6.5,��
2022/03/30,04:50,0.157,0.142,0.225,0.217,0.221,0.123,0.079,�쐼,6.5,��
2022/03/30,05:00,0.156,0.142,0.225,0.218,0.221,0.124,0.078,�쐼,4.8,��
2022/03/30,05:10,0.156,0.142,0.225,0.217,0.221,0.124,0.079,��쐼,5.0,��
2022/03/30,05:20,0.156,0.143,0.225,0.218,0.221,0.125,0.078,��쐼,5.8,��
2022/03/30,05:30,0.156,0.143,0.225,0.218,0.221,0.124,0.078,��쐼,6.0,��
2022/03/30,05:40,0.156,0.143,0.225,0.218,0.221,0.124,0.078,��쐼,4.4,��
2022/03/30,05:50,0.156,0.141,0.224,0.217,0.220,0.124,0.079,��쐼,4.1,��
2022/03/30,06:00,0.155,0.142,0.224,0.218,0.222,0.123,0.078,��쐼,4.1,��
2022/03/30,06:10,0.156,0.142,0.225,0.218,0.221,0.124,0.078,�쐼,4.3,��
2022/03/30,06:20,0.157,0.141,0.224,0.217,0.220,0.124,0.078,�쐼,6.3,��
2022/03/30,06:30,0.156,0.144,0.224,0.217,0.223,0.123,0.078,�쐼,6.5,��
2022/03/30,06:40,0.155,0.142,0.223,0.218,0.221,0.124,0.078,��쐼,5.5,��
2022/03/30,06:50,0.156,0.142,0.225,0.217,0.222,0.124,0.078,��쐼,3.6,��
2022/03/30,07:00,0.156,0.142,0.224,0.218,0.222,0.124,0.077,��쐼,2.5,��
2022/03/30,07:10,0.155,0.142,0.225,0.216,0.220,0.122,0.078,��쐼,2.2,��
2022/03/30,07:20,0.157,0.142,0.225,0.218,0.222,0.123,0.078,���쐼,2.9,��
2022/03/30,07:30,0.156,0.143,0.225,0.217,0.220,0.123,0.078,���쐼,2.1,��
2022/03/30,07:40,0.156,0.141,0.224,0.216,0.222,0.123,0.078,���쐼,2.7,��
2022/03/30,07:50,0.156,0.142,0.225,0.216,0.220,0.124,0.078,�쐼,3.2,��
2022/03/30,08:00,0.157,0.143,0.224,0.217,0.222,0.124,0.078,�쐼,2.9,��
2022/03/30,08:10,0.155,0.142,0.223,0.215,0.219,0.124,0.078,��,3.2,��
2022/03/30,08:20,0.156,0.142,0.223,0.218,0.221,0.123,0.078,���쐼,5.9,��
2022/03/30,08:30,0.155,0.142,0.226,0.215,0.220,0.124,0.078,���쐼,5.5,��
2022/03/30,08:40,0.155,0.142,0.224,0.216,0.222,0.123,0.078,���쐼,4.4,��
2022/03/30,08:50,0.155,0.142,0.221,0.217,0.221,0.123,0.078,���쐼,4.0,��
2022/03/30,09:00,0.155,0.142,0.226,0.215,0.222,0.124,0.078,�쐼,4.9,��
2022/03/30,09:10,0.155,0.142,0.223,0.217,0.220,0.123,0.079,�쐼,5.4,��
2022/03/30,09:20,0.155,0.142,0.223,0.217,0.220,0.124,0.078,���쐼,5.9,��
2022/03/30,09:30,0.156,0.141,0.226,0.214,0.222,0.124,0.079,���쐼,6.0,��
2022/03/30,09:40,0.155,0.143,0.224,0.217,0.220,0.123,0.078,���쐼,4.6,��
2022/03/30,09:50,0.155,0.142,0.222,0.217,0.219,0.123,0.078,�쐼,4.1,��
2022/03/30,10:00,0.156,0.141,0.225,0.216,0.220,0.124,0.078,�쐼,3.5,��
2022/03/30,10:10,0.154,0.142,0.225,0.215,0.221,0.122,0.078,��,3.2,��
2022/03/30,10:20,0.154,0.142,0.225,0.217,0.218,0.123,0.078,��쓌,4.4,��
2022/03/30,10:30,0.156,0.141,0.223,0.217,0.222,0.124,0.079,��,7.3,��
2022/03/30,10:40,0.156,0.142,0.225,0.216,0.221,0.123,0.078,��,7.8,��
2022/03/30,10:50,0.154,0.142,0.226,0.218,0.221,0.124,0.079,��,6.4,��
2022/03/30,11:00,0.157,0.143,0.225,0.217,0.223,0.123,0.078,��쓌,8.3,��
2022/03/30,11:10,0.156,0.142,0.227,0.219,0.221,0.123,0.079,��쓌,8.3,��
2022/03/30,11:20,0.156,0.143,0.224,0.217,0.223,0.124,0.078,��쓌,8.8,��
2022/03/30,11:30,0.155,0.142,0.225,0.217,0.221,0.124,0.079,�쓌,9.0,��
2022/03/30,11:40,0.155,0.142,0.225,0.218,0.220,0.123,0.078,��쓌,8.9,��
2022/03/30,11:50,0.155,0.143,0.223,0.217,0.222,0.124,0.079,��쓌,7.7,��
2022/03/30,12:00,0.155,0.142,0.225,0.219,0.222,0.124,0.078,��쓌,7.6,��
2022/03/30,12:10,0.156,0.143,0.226,0.217,0.220,0.123,0.078,��쓌,7.3,��
2022/03/30,12:20,0.157,0.142,0.223,0.216,0.222,0.124,0.078,��,8.6,��
2022/03/30,12:30,0.155,0.142,0.224,0.218,0.220,0.123,0.079,��쓌,9.0,��
2022/03/30,12:40,0.156,0.142,0.226,0.217,0.219,0.123,0.079,��쓌,9.6,��
2022/03/30,12:50,0.156,0.142,0.224,0.218,0.221,0.124,0.078,��쓌,9.8,��
2022/03/30,13:00,0.154,0.142,0.225,0.218,0.221,0.123,0.078,��쓌,10.1,��
2022/03/30,13:10,0.157,0.142,0.227,0.218,0.219,0.124,0.078,��쓌,11.3,��
2022/03/30,13:20,0.156,0.143,0.225,0.218,0.222,0.123,0.079,��,10.3,��
2022/03/30,13:30,0.155,0.142,0.224,0.216,0.221,0.124,0.078,��쓌,10.4,��
2022/03/30,13:40,0.155,0.142,0.226,0.219,0.220,0.123,0.079,��,10.7,��
2022/03/30,13:50,0.157,0.142,0.226,0.220,0.223,0.123,0.079,��,10.6,��
2022/03/30,14:00,0.156,0.142,0.224,0.217,0.221,0.124,0.079,��,11.3,��
2022/03/30,14:10,0.155,0.143,0.225,0.219,0.220,0.125,0.078,��,11.5,��
2022/03/30,14:20,0.156,0.143,0.227,0.219,0.222,0.123,0.078,��,11.2,��
2022/03/30,14:30,0.156,0.143,0.224,0.218,0.222,0.123,0.079,��,10.4,��
2022/03/30,14:40,0.155,0.144,0.226,0.218,0.219,0.124,0.078,��,10.7,��
2022/03/30,14:50,0.157,0.142,0.226,0.217,0.221,0.124,0.079,��,9.7,��
2022/03/30,15:00,0.156,0.142,0.224,0.220,0.223,0.124,0.079,��,10.1,��
2022/03/30,15:10,0.155,0.143,0.226,0.218,0.220,0.125,0.079,��,11.7,��
2022/03/30,15:20,0.158,0.142,0.227,0.218,0.221,0.123,0.079,��,11.9,��
2022/03/30,15:30,0.157,0.143,0.228,0.218,0.224,0.123,0.079,��,11.3,��
2022/03/30,15:40,0.154,0.142,0.226,0.220,0.219,0.124,0.079,��,10.2,��
2022/03/30,15:50,0.157,0.144,0.227,0.218,0.223,0.124,0.079,��,10.8,��
2022/03/30,16:00,0.157,0.142,0.226,0.220,0.222,0.124,0.078,��,10.5,��
2022/03/30,16:10,0.157,0.143,0.227,0.218,0.220,0.122,0.079,��,9.5,��
2022/03/30,16:20,0.156,0.143,0.226,0.219,0.224,0.124,0.079,��,7.1,��
2022/03/30,16:30,0.156,0.143,0.227,0.219,0.221,0.123,0.079,��쐼,8.4,��
2022/03/30,16:40,0.158,0.143,0.226,0.218,0.221,0.125,0.078,��,8.1,��
2022/03/30,16:50,0.156,0.144,0.227,0.218,0.223,0.124,0.078,��,7.9,��
2022/03/30,17:00,0.157,0.142,0.226,0.218,0.221,0.124,0.079,��,8.7,��
2022/03/30,17:10,0.156,0.143,0.227,0.219,0.224,0.124,0.078,��,6.6,��
2022/03/30,17:20,0.156,0.142,0.226,0.218,0.222,0.124,0.079,��쐼,7.1,��
2022/03/30,17:30,0.156,0.143,0.227,0.220,0.223,0.124,0.078,��,7.1,��
2022/03/30,17:40,0.157,0.144,0.227,0.219,0.222,0.124,0.079,��,6.3,��
2022/03/30,17:50,0.156,0.143,0.227,0.220,0.222,0.124,0.079,��,8.4,��
2022/03/30,18:00,0.157,0.144,0.226,0.219,0.223,0.124,0.078,��,8.3,��
2022/03/30,18:10,0.156,0.143,0.227,0.220,0.221,0.124,0.078,��,8.3,��
2022/03/30,18:20,0.156,0.143,0.227,0.219,0.223,0.124,0.079,��쐼,8.5,��
2022/03/30,18:30,0.156,0.144,0.226,0.219,0.222,0.124,0.078,��쐼,8.8,��
2022/03/30,18:40,0.156,0.143,0.226,0.219,0.223,0.125,0.079,��,7.8,��
2022/03/30,18:50,0.157,0.142,0.228,0.219,0.221,0.124,0.079,��쐼,7.0,��
2022/03/30,19:00,0.156,0.144,0.226,0.218,0.223,0.124,0.078,��쐼,8.7,��
2022/03/30,19:10,0.157,0.143,0.226,0.218,0.221,0.124,0.079,��쐼,6.3,��
2022/03/30,19:20,0.156,0.144,0.225,0.218,0.221,0.124,0.078,��쐼,5.8,��
2022/03/30,19:30,0.156,0.142,0.227,0.220,0.222,0.124,0.079,��쐼,5.5,��
2022/03/30,19:40,0.156,0.144,0.226,0.219,0.221,0.124,0.079,��쐼,5.2,��
2022/03/30,19:50,0.156,0.143,0.226,0.220,0.223,0.124,0.078,��쐼,4.4,��
2022/03/30,20:00,0.157,0.143,0.228,0.219,0.221,0.124,0.079,��,3.8,��
2022/03/30,20:10,0.156,0.144,0.225,0.219,0.222,0.124,0.078,��쐼,4.1,��
2022/03/30,20:20,0.156,0.143,0.227,0.219,0.222,0.123,0.079,��,4.8,��
2022/03/30,20:30,0.156,0.143,0.226,0.218,0.222,0.124,0.079,��,4.4,��
2022/03/30,20:40,0.157,0.143,0.225,0.220,0.222,0.123,0.079,��,4.0,��
2022/03/30,20:50,0.155,0.143,0.226,0.219,0.222,0.124,0.079,��,2.7,��
2022/03/30,21:00,0.157,0.143,0.227,0.218,0.223,0.123,0.078,��,3.0,��
2022/03/30,21:10,0.157,0.144,0.227,0.219,0.222,0.124,0.078,��,3.5,��
2022/03/30,21:20,0.155,0.143,0.227,0.218,0.224,0.125,0.079,��,4.1,��
2022/03/30,21:30,0.157,0.143,0.227,0.220,0.222,0.123,0.078,��,2.7,��
2022/03/30,21:40,0.155,0.143,0.227,0.220,0.221,0.124,0.078,��쐼,2.2,��
2022/03/30,21:50,0.157,0.143,0.227,0.219,0.222,0.124,0.078,��쐼,2.7,��
2022/03/30,22:00,0.157,0.142,0.226,0.219,0.221,0.124,0.079,��쐼,3.3,��
2022/03/30,22:10,0.156,0.142,0.227,0.220,0.222,0.124,0.079,�쐼,3.0,��
2022/03/30,22:20,0.157,0.144,0.227,0.219,0.222,0.124,0.078,�쐼,1.9,��
2022/03/30,22:30,0.157,0.142,0.227,0.219,0.223,0.124,0.079,���쐼,1.8,��
2022/03/30,22:40,0.158,0.142,0.227,0.218,0.222,0.125,0.079,���쐼,1.6,��
2022/03/30,22:50,0.157,0.143,0.227,0.219,0.222,0.124,0.079,�쐼,1.1,��
2022/03/30,23:00,0.156,0.144,0.226,0.219,0.224,0.124,0.079,��,1.3,��
2022/03/30,23:10,0.156,0.144,0.228,0.219,0.220,0.125,0.079,�k��,1.6,��
2022/03/30,23:20,0.156,0.144,0.227,0.220,0.223,0.124,0.078,���쐼,1.6,��
2022/03/30,23:30,0.156,0.144,0.227,0.220,0.222,0.125,0.080,�쐼,1.1,��
2022/03/30,23:40,0.158,0.143,0.228,0.220,0.222,0.125,0.079,�쐼,2.1,��
2022/03/30,23:50,0.157,0.143,0.228,0.220,0.223,0.125,0.079,���쐼,1.0,��
